Skip Page Navigation
NASA JPL Caltech
NASA Logo - Jet Propulsion Laboratory + View the NASA Portal
+ Near-Earth Object (NEO) Program
Search JPL
JPL Home Earth Solar System Stars & Galaxies Technology
JPL Solar System Dynamics
BODIES ORBITS EPHEMERIDES TOOLS PHYSICAL DATA DISCOVERY FAQ SITE MAP
JPL Small-Body Database Browser
Search: [ help ]  
(2012 KT42)
Classification: Apollo [NEO]          SPK-ID: 3605257
Ephemeris | Orbit Diagram | Orbital Elements | Physical Parameters | Close-Approach Data ]

[ hide orbit diagram ]
Orbit Diagram
Note: Make sure you have Java enabled on your browser to see the applet. This applet is provided as a 3D orbit visualization tool. The applet was implemented using 2-body methods, and hence should not be used for determining accurate long-term trajectories (over several years or decades) or planetary encounter circumstances. For accurate long-term ephemerides, please instead use our Horizons system.
Orbit Viewer

Additional Notes: the orbits shown in the applet are color coded. The planets are white lines, and the asteroid/comet is a blue line. The bright white line indicates the portion of the orbit that is above the ecliptic plane, and the darker portion is below the ecliptic plane. Likewise for the asteroid/comet orbit, the light blue indicates the portion above the ecliptic plane, and the dark blue the portion below the ecliptic plane.

Orbit Viewer applet originally written and kindly provided by Osamu Ajiki (AstroArts), and further modified by Ron Baalke (JPL).


Orbital Elements at Epoch 2456400.5 (2013-Apr-18.0) TDB
Reference: JPL 15 (heliocentric ecliptic J2000)
 Element Value Uncertainty (1-sigma)   Units 
e .5545759455009897 3.7649e-05  
a 1.59706203025018 7.3707e-05 AU
q .7113698448004562 2.7904e-05 AU
i 2.194054564541845 0.00036647 deg
node 69.58173446420855 6.1829e-05 deg
peri 259.0367679890757 0.0023091 deg
M 133.193241949826 0.0089236 deg
tp 2456127.752491040614
(2012-Jul-19.25249104)
0.00062571 JED
period 737.1928319183556
2.02
0.051034
0.0001397
d
yr
n .4883389859654389 3.3806e-05 deg/d
Q 2.482754215699903 0.00011458 AU
  Orbit Determination Parameters
   # obs. used (total)      80  
   data-arc span      1 day  
   first obs. used      2012-05-28  
   last obs. used      2012-05-29  
   planetary ephem.      DE405  
   SB-pert. ephem.      SB405-CPV-2  
   condition code      5  
   fit RMS      .30503  
   data source      ORB  
   producer      Otto Matic  
   solution date      2012-Jun-06 14:09:37  

Additional Information
 Earth MOID = .000965048 AU 
 T_jup = 4.179 
[ show covariance matrix ]

Ephemeris | Orbit Diagram | Orbital Elements | Physical Parameters | Close-Approach Data ]

Physical Parameter Table
Parameter Symbol Value Units Sigma Reference Notes
absolute magnitude H 28.808 mag .59164 15 autocmod 2.5b
rotation period rot_per 0.06057 h n/a Asteroid Lightcurve DataBase (Rev. 2013-May-01) Published Reference List:
[Polishook, D.; Binzel, R.P.; Lockhart, M.; DeMeo, F.E.; et al. (2012) Icarus 221, 1187-1189.]
[Elenin, L. UNPUBLISHED.]

[ show close-approach data ]
Ephemeris | Orbit Diagram | Orbital Elements | Physical Parameters | Close-Approach Data ]
ABOUT SSD CREDITS/AWARDS PRIVACY/COPYRIGHT GLOSSARY LINKS
FirstGov 2013-May-23 22:50 UT
(server date/time)  
NASA Home Page
Site Manager:   Donald K. Yeomans
Webmaster  Alan B. Chamberlin